Location: McFarlands Corners
(41.4117°N, 81.3382°W)
Time: 06:06:25
(UTC+00:00)

Tiros 1 - Pass Details

Date: 19 February 2026
Orbit: 618 x 649 km, 48.4° (Epoch: 5 March)

Event Time Altitude Azimuth Distance (km) Brightness Sun altitude
Rises 16:56:15 0° 292° (WNW) 2,902 10.2 36.6°
Reaches altitude 10° 16:58:43 10° 301° (WNW) 1,990 9.4 36.7°
Maximum altitude 17:02:57 36° 9° (N) 982 8.0 36.8°
Drops below altitude 10° 17:07:10 10° 76° (ENE) 1,980 9.7 37.0°
Sets 17:09:37 0° 85° (E) 2,884 10.5 37.1°
